| time (UTC) | temp F | wind direction | speed MPH | gust MPH | rain 1hr in | rain 24hr in | rain mn in | humidity % | barometer mb |
| 20260506194943 | 61 | 333 | 8.0 | 17.0 | 0.00 | 0.00 | 0.00 | 86 | 1014.7 |
| 20260506194442 | 61 | 342 | 8.0 | 17.0 | 0.00 | 0.00 | 0.00 | 86 | 1014.8 |
| 20260506194201 | 61 | 315 | 8.0 | 16.0 | 0.00 | 0.00 | 0.00 | 86 | 1014.7 |
| 20260506193443 | 62 | 308 | 7.0 | 15.0 | 0.00 | 0.00 | 0.00 | 86 | 1014.6 |
| 20260506192939 | 62 | 9 | 6.0 | 13.0 | 0.00 | 0.00 | 0.00 | 86 | 1014.6 |
| 20260506192438 | 62 | 341 | 6.0 | 14.0 | 0.00 | 0.00 | 0.00 | 85 | 1014.8 |
| 20260506191939 | 63 | 351 | 6.0 | 14.0 | 0.00 | 0.00 | 0.00 | 85 | 1014.8 |
| 20260506191439 | 63 | 309 | 7.0 | 15.0 | 0.00 | 0.00 | 0.00 | 86 | 1014.7 |
| 20260506191206 | 63 | 294 | 7.0 | 15.0 | 0.00 | 0.00 | 0.00 | 85 | 1014.7 |
| 20260506190439 | 63 | 355 | 7.0 | 14.0 | 0.00 | 0.00 | 0.00 | 86 | 1014.8 |
| 20260506185939 | 63 | 342 | 7.0 | 14.0 | 0.00 | 0.00 | 0.00 | 86 | 1014.9 |
| 20260506185438 | 63 | 304 | 8.0 | 17.0 | 0.00 | 0.00 | 0.00 | 86 | 1014.8 |
| 20260506184938 | 63 | 265 | 7.0 | 17.0 | 0.00 | 0.00 | 0.00 | 86 | 1014.7 |
| 20260506184439 | 64 | 308 | 7.0 | 14.0 | 0.00 | 0.00 | 0.00 | 86 | 1014.7 |
| 20260506183937 | 64 | 337 | 6.0 | 13.0 | 0.00 | 0.00 | 0.00 | 87 | 1014.6 |
| 20260506183437 | 64 | 302 | 6.0 | 15.0 | 0.00 | 0.00 | 0.00 | 86 | 1014.6 |
| 20260506182936 | 65 | 27 | 7.0 | 15.0 | 0.00 | 0.00 | 0.00 | 86 | 1014.5 |
| 20260506182437 | 66 | 309 | 7.0 | 15.0 | 0.00 | 0.00 | 0.00 | 85 | 1014.7 |
| 20260506181936 | 67 | 351 | 8.0 | 14.0 | 0.00 | 0.00 | 0.00 | 84 | 1014.6 |
| 20260506181437 | 68 | 327 | 8.0 | 14.0 | 0.00 | 0.00 | 0.00 | 83 | 1014.6 |
| 20260506180937 | 69 | 11 | 7.0 | 14.0 | 0.00 | 0.00 | 0.00 | 81 | 1014.6 |
| 20260506180437 | 71 | 0 | 7.0 | 13.0 | 0.00 | 0.00 | 0.00 | 81 | 1014.4 |
| 20260506180157 | 71 | 295 | 7.0 | 13.0 | 0.00 | 0.00 | 0.00 | 81 | 1014.4 |
| 20260506175655 | 72 | 327 | 5.0 | 13.0 | 0.00 | 0.00 | 0.00 | 82 | 1014.1 |
| 20260506174937 | 71 | 340 | 4.0 | 8.0 | 0.00 | 0.00 | 0.00 | 82 | 1014.1 |
| 20260506174435 | 71 | 19 | 4.0 | 9.0 | 0.00 | 0.00 | 0.00 | 82 | 1014.0 |
| 20260506173934 | 70 | 23 | 4.0 | 9.0 | 0.00 | 0.00 | 0.00 | 82 | 1014.0 |
| 20260506173435 | 69 | 0 | 3.0 | 8.0 | 0.00 | 0.00 | 0.00 | 85 | 1014.0 |
| 20260506173153 | 68 | 0 | 3.0 | 8.0 | 0.00 | 0.00 | 0.00 | 85 | 1013.7 |
| 20260506172434 | 68 | 42 | 3.0 | 8.0 | 0.00 | 0.00 | 0.00 | 86 | 1013.7 |
| 20260506171934 | 67 | 88 | 4.0 | 8.0 | 0.00 | 0.00 | 0.00 | 87 | 1013.5 |
| 20260506171435 | 66 | 18 | 4.0 | 8.0 | 0.00 | 0.00 | 0.00 | 88 | 1013.5 |
| 20260506170933 | 66 | 9 | 3.0 | 8.0 | 0.00 | 0.00 | 0.00 | 88 | 1013.5 |
| 20260506170434 | 65 | 53 | 3.0 | 8.0 | 0.00 | 0.00 | 0.00 | 88 | 1013.6 |
| 20260506165935 | 65 | 0 | 3.0 | 10.0 | 0.00 | 0.00 | 0.00 | 89 | 1013.7 |
| 20260506165433 | 65 | 84 | 4.0 | 10.0 | 0.00 | 0.00 | 0.00 | 89 | 1013.6 |
| 20260506164935 | 64 | 15 | 4.0 | 8.0 | 0.00 | 0.00 | 0.00 | 90 | 1013.6 |
| 20260506164434 | 64 | 28 | 4.0 | 9.0 | 0.00 | 0.00 | 0.00 | 92 | 1013.6 |
| 20260506164157 | 63 | 80 | 4.0 | 9.0 | 0.00 | 0.00 | 0.00 | 92 | 1013.7 |
| 20260506163438 | 62 | 57 | 3.0 | 8.0 | 0.00 | 0.00 | 0.00 | 95 | 1014.0 |
| 20260506163434 | 62 | 10 | 4.0 | 8.0 | 0.00 | 0.00 | 0.00 | 95 | 1013.7 |
| 20260506162434 | 61 | 44 | 3.0 | 9.0 | 0.00 | 0.00 | 0.00 | 96 | 1014.1 |
| 20260506161933 | 60 | 75 | 3.0 | 9.0 | 0.00 | 0.00 | 0.00 | 96 | 1014.5 |
| 20260506161434 | 60 | 47 | 3.0 | 9.0 | 0.00 | 0.00 | 0.00 | 96 | 1014.7 |
| 20260506161204 | 59 | 13 | 4.0 | 12.0 | 0.00 | 0.00 | 0.00 | 95 | 1014.1 |
| 20260506160713 | 59 | 14 | 4.0 | 12.0 | 0.00 | 0.00 | 0.00 | 95 | 1014.1 |
| 20260506155935 | 59 | 49 | 5.0 | 12.0 | 0.00 | 0.00 | 0.00 | 94 | 1014.7 |
| 20260506155434 | 59 | 346 | 5.0 | 12.0 | 0.00 | 0.00 | 0.00 | 94 | 1015.1 |
| 20260506154934 | 60 | 0 | 5.0 | 13.0 | 0.00 | 0.00 | 0.00 | 94 | 1015.1 |
| 20260506154434 | 60 | 340 | 6.0 | 13.0 | 0.00 | 0.00 | 0.00 | 94 | 1014.9 |
| 20260506154205 | 60 | 9 | 6.0 | 13.0 | 0.00 | 0.00 | 0.00 | 94 | 1015.2 |
| 20260506153435 | 60 | 19 | 6.0 | 13.0 | 0.00 | 0.00 | 0.00 | 94 | 1015.1 |
| 20260506152934 | 61 | 306 | 6.0 | 13.0 | 0.00 | 0.00 | 0.00 | 94 | 1015.3 |
| 20260506152434 | 62 | 27 | 7.0 | 15.0 | 0.00 | 0.00 | 0.00 | 94 | 1015.2 |
| 20260506151935 | 62 | 335 | 7.0 | 16.0 | 0.00 | 0.00 | 0.00 | 94 | 1015.1 |
| 20260506151434 | 62 | 330 | 7.0 | 16.0 | 0.00 | 0.00 | 0.00 | 94 | 1015.0 |
| 20260506150934 | 63 | 341 | 7.0 | 18.0 | 0.00 | 0.00 | 0.00 | 95 | 1015.7 |
| 20260506150434 | 63 | 277 | 6.0 | 18.0 | 0.00 | 0.00 | 0.00 | 95 | 1015.2 |
| 20260506145934 | 63 | 15 | 5.0 | 17.0 | 0.00 | 0.00 | 0.00 | 95 | 1014.6 |
| 20260506145435 | 63 | 331 | 6.0 | 16.0 | 0.00 | 0.00 | 0.00 | 95 | 1014.0 |
| 20260506144934 | 63 | 350 | 8.0 | 13.0 | 0.00 | 0.00 | 0.00 | 95 | 1013.8 |
| 20260506144435 | 64 | 342 | 8.0 | 16.0 | 0.00 | 0.00 | 0.00 | 95 | 1013.7 |
| 20260506143934 | 64 | 11 | 6.0 | 16.0 | 0.00 | 0.00 | 0.00 | 94 | 1013.5 |
| 20260506143435 | 64 | 351 | 6.0 | 15.0 | 0.00 | 0.00 | 0.00 | 95 | 1013.4 |
| 20260506142930 | 64 | 10 | 7.0 | 15.0 | 0.00 | 0.00 | 0.00 | 94 | 1013.5 |
| 20260506142424 | 65 | 336 | 6.0 | 14.0 | 0.00 | 0.00 | 0.00 | 95 | 1013.6 |
| 20260506142146 | 65 | 9 | 5.0 | 14.0 | 0.00 | 0.00 | 0.00 | 95 | 1013.2 |
| 20260506141412 | 66 | 14 | 5.0 | 12.0 | 0.00 | 0.00 | 0.00 | 95 | 1012.8 |
| 20260506140910 | 66 | 15 | 5.0 | 12.0 | 0.00 | 0.00 | 0.00 | 95 | 1012.7 |
| 20260506140410 | 66 | 44 | 5.0 | 12.0 | 0.00 | 0.00 | 0.00 | 95 | 1012.6 |
| 20260506135910 | 67 | 348 | 5.0 | 12.0 | 0.00 | 0.00 | 0.00 | 95 | 1012.5 |
| 20260506135410 | 67 | 347 | 6.0 | 16.0 | 0.00 | 0.00 | 0.00 | 95 | 1012.5 |
| 20260506134911 | 67 | 331 | 6.0 | 16.0 | 0.00 | 0.00 | 0.00 | 94 | 1012.6 |
| 20260506134410 | 68 | 22 | 7.0 | 16.0 | 0.00 | 0.00 | 0.00 | 94 | 1012.3 |
| 20260506134134 | 70 | 350 | 5.0 | 16.0 | 0.00 | 0.00 | 0.00 | 93 | 1012.1 |
| 20260506133410 | 73 | 294 | 1.0 | 5.0 | 0.00 | 0.00 | 0.00 | 98 | 1011.7 |
| 20260506132907 | 73 | 45 | 1.0 | 3.0 | 0.00 | 0.00 | 0.00 | 98 | 1011.6 |
| 20260506132408 | 73 | 44 | 1.0 | 3.0 | 0.00 | 0.00 | 0.00 | 98 | 1011.6 |
| 20260506131908 | 73 | 44 | 1.0 | 3.0 | 0.00 | 0.00 | 0.00 | 98 | 1011.7 |
| 20260506131406 | 73 | 45 | 2.0 | 3.0 | 0.00 | 0.00 | 0.00 | 98 | 1011.7 |
| 20260506130907 | 73 | 49 | 2.0 | 3.0 | 0.00 | 0.00 | 0.00 | 98 | 1011.5 |
| 20260506130405 | 73 | 57 | 1.0 | 3.0 | 0.00 | 0.00 | 0.00 | 98 | 1011.4 |
| 20260506130131 | 73 | 87 | 0.0 | 3.0 | 0.00 | 0.00 | 0.00 | 98 | 1011.2 |
| 20260506125406 | 73 | 87 | 0.0 | 3.0 | 0.00 | 0.00 | 0.00 | 98 | 1011.0 |
| 20260506125147 | 73 | 87 | 1.0 | 3.0 | 0.00 | 0.00 | 0.00 | 98 | 1011.1 |
| 20260506124406 | 73 | 87 | 1.0 | 3.0 | 0.00 | 0.00 | 0.00 | 98 | 1011.2 |
| 20260506123905 | 73 | 114 | 0.0 | 2.0 | 0.00 | 0.00 | 0.00 | 98 | 1011.0 |
| 20260506123406 | 73 | 169 | 0.0 | 0.0 | 0.00 | 0.00 | 0.00 | 98 | 1010.9 |
| 20260506122907 | 72 | 169 | 0.0 | 0.0 | 0.00 | 0.00 | 0.00 | 98 | 1011.0 |
| 20260506122635 | 72 | 169 | 0.0 | 1.0 | 0.00 | 0.00 | 0.00 | 97 | 1010.9 |
| 20260506121904 | 72 | 169 | 0.0 | 1.0 | 0.00 | 0.00 | 0.00 | 97 | 1010.8 |
| 20260506121417 | 72 | 169 | 0.0 | 1.0 | 0.00 | 0.00 | 0.00 | 97 | 1010.7 |
| 20260506120916 | 72 | 169 | 0.0 | 1.0 | 0.00 | 0.00 | 0.00 | 97 | 1010.7 |
| 20260506120406 | 73 | 169 | 0.0 | 1.0 | 0.00 | 0.00 | 0.00 | 97 | 1010.7 |
| 20260506120123 | 73 | 169 | 0.0 | 3.0 | 0.00 | 0.00 | 0.00 | 97 | 1010.6 |
| 20260506115404 | 73 | 169 | 1.0 | 3.0 | 0.00 | 0.00 | 0.00 | 97 | 1010.6 |
| 20260506115123 | 73 | 169 | 1.0 | 4.0 | 0.00 | 0.00 | 0.00 | 97 | 1010.6 |
| 20260506114653 | 73 | 169 | 1.0 | 4.0 | 0.00 | 0.00 | 0.00 | 97 | 1010.6 |
| 20260506113900 | 73 | 169 | 1.0 | 4.0 | 0.00 | 0.00 | 0.00 | 97 | 1010.5 |
| 20260506113400 | 73 | 173 | 1.0 | 2.0 | 0.00 | 0.00 | 0.00 | 97 | 1010.6 |
| 20260506112858 | 73 | 173 | 2.0 | 5.0 | 0.00 | 0.00 | 0.00 | 97 | 1010.6 |
| 20260506112356 | 73 | 173 | 2.0 | 5.0 | 0.00 | 0.00 | 0.00 | 97 | 1010.6 |
| 20260506112332 | 73 | 179 | 2.0 | 6.0 | 0.00 | 0.00 | 0.00 | 97 | 1010.7 |
| 20260506111354 | 74 | 172 | 2.0 | 6.0 | 0.00 | 0.00 | 0.00 | 97 | 1010.9 |
| 20260506110847 | 74 | 166 | 2.0 | 4.0 | 0.00 | 0.00 | 0.00 | 97 | 1010.9 |
| 20260506110348 | 74 | 194 | 1.0 | 3.0 | 0.00 | 0.00 | 0.00 | 97 | 1011.0 |
| 20260506105848 | 74 | 195 | 0.0 | 3.0 | 0.00 | 0.00 | 0.00 | 97 | 1011.1 |
| 20260506105347 | 74 | 195 | 0.0 | 3.0 | 0.00 | 0.00 | 0.00 | 96 | 1011.1 |
| 20260506104845 | 74 | 195 | 1.0 | 3.0 | 0.00 | 0.00 | 0.00 | 96 | 1011.0 |
| 20260506104346 | 74 | 195 | 1.0 | 3.0 | 0.00 | 0.00 | 0.00 | 97 | 1011.0 |
| 20260506103844 | 74 | 194 | 1.0 | 3.0 | 0.00 | 0.00 | 0.00 | 96 | 1010.9 |
| 20260506103341 | 74 | 194 | 2.0 | 4.0 | 0.00 | 0.00 | 0.00 | 96 | 1011.0 |
| 20260506102842 | 74 | 178 | 1.0 | 4.0 | 0.00 | 0.00 | 0.00 | 96 | 1010.9 |
| 20260506102341 | 74 | 162 | 1.0 | 5.0 | 0.00 | 0.00 | 0.00 | 96 | 1010.9 |
| 20260506101841 | 74 | 160 | 1.0 | 5.0 | 0.00 | 0.00 | 0.00 | 95 | 1010.8 |
| 20260506101339 | 74 | 157 | 1.0 | 5.0 | 0.00 | 0.00 | 0.00 | 95 | 1010.7 |
| 20260506101106 | 74 | 156 | 2.0 | 5.0 | 0.00 | 0.00 | 0.00 | 95 | 1010.7 |
| 20260506100337 | 74 | 149 | 2.0 | 6.0 | 0.00 | 0.00 | 0.00 | 95 | 1010.5 |
| 20260506095838 | 74 | 182 | 2.0 | 6.0 | 0.00 | 0.00 | 0.00 | 95 | 1010.4 |
| 20260506095338 | 74 | 158 | 2.0 | 5.0 | 0.00 | 0.00 | 0.00 | 95 | 1010.5 |
| 20260506094837 | 74 | 157 | 2.0 | 5.0 | 0.00 | 0.00 | 0.00 | 95 | 1010.4 |
| 20260506094338 | 74 | 156 | 2.0 | 5.0 | 0.00 | 0.00 | 0.00 | 94 | 1010.4 |
| 20260506093837 | 74 | 144 | 2.0 | 5.0 | 0.00 | 0.00 | 0.00 | 94 | 1010.4 |
| 20260506093338 | 74 | 150 | 3.0 | 5.0 | 0.00 | 0.00 | 0.00 | 94 | 1010.3 |
| 20260506092838 | 74 | 167 | 3.0 | 5.0 | 0.00 | 0.00 | 0.00 | 94 | 1010.3 |
| 20260506092338 | 74 | 166 | 3.0 | 5.0 | 0.00 | 0.00 | 0.00 | 94 | 1010.1 |
| 20260506091837 | 75 | 159 | 3.0 | 8.0 | 0.00 | 0.00 | 0.00 | 93 | 1009.9 |
| 20260506091605 | 75 | 168 | 3.0 | 8.0 | 0.00 | 0.00 | 0.00 | 93 | 1010.0 |
| 20260506091102 | 75 | 172 | 3.0 | 8.0 | 0.00 | 0.00 | 0.00 | 93 | 1009.9 |
| 20260506090338 | 75 | 209 | 3.0 | 8.0 | 0.00 | 0.00 | 0.00 | 93 | 1009.8 |
| 20260506085837 | 75 | 155 | 3.0 | 8.0 | 0.00 | 0.00 | 0.00 | 93 | 1009.8 |
| 20260506085338 | 75 | 163 | 4.0 | 9.0 | 0.00 | 0.00 | 0.00 | 93 | 1009.6 |
| 20260506084837 | 75 | 155 | 5.0 | 12.0 | 0.00 | 0.00 | 0.00 | 93 | 1009.4 |
| 20260506084815 | 75 | 175 | 5.0 | 12.0 | 0.00 | 0.00 | 0.00 | 93 | 1009.4 |
| 20260506083838 | 75 | 171 | 5.0 | 11.0 | 0.00 | 0.00 | 0.00 | 93 | 1009.4 |
| 20260506083337 | 75 | 191 | 5.0 | 9.0 | 0.00 | 0.00 | 0.00 | 93 | 1009.6 |
| 20260506082835 | 75 | 148 | 5.0 | 13.0 | 0.00 | 0.00 | 0.00 | 93 | 1009.8 |
| 20260506082335 | 75 | 206 | 5.0 | 13.0 | 0.00 | 0.00 | 0.00 | 93 | 1009.6 |
| 20260506081835 | 75 | 201 | 5.0 | 10.0 | 0.00 | 0.00 | 0.00 | 93 | 1009.6 |
| 20260506081333 | 75 | 198 | 5.0 | 13.0 | 0.00 | 0.00 | 0.00 | 93 | 1009.5 |
| 20260506080832 | 75 | 190 | 6.0 | 14.0 | 0.00 | 0.00 | 0.00 | 93 | 1009.5 |
| 20260506080332 | 75 | 175 | 6.0 | 14.0 | 0.00 | 0.00 | 0.00 | 92 | 1009.5 |
| 20260506073326 | 75 | 199 | 5.0 | 16.0 | 0.00 | 0.00 | 0.00 | 93 | 1009.9 |
| 20260506072823 | 75 | 169 | 5.0 | 16.0 | 0.00 | 0.00 | 0.00 | 93 | 1009.9 |
| 20260506072322 | 75 | 186 | 6.0 | 16.0 | 0.00 | 0.00 | 0.00 | 93 | 1010.1 |
| 20260506071819 | 75 | 159 | 7.0 | 18.0 | 0.00 | 0.00 | 0.00 | 93 | 1010.0 |
| 20260506071807 | 75 | 159 | 7.0 | 18.0 | 0.00 | 0.00 | 0.00 | 93 | 1010.0 |
| 20260506070820 | 75 | 169 | 8.0 | 19.0 | 0.00 | 0.00 | 0.00 | 93 | 1010.0 |
| 20260506070316 | 75 | 191 | 7.0 | 19.0 | 0.00 | 0.00 | 0.00 | 93 | 1010.0 |
| 20260506062309 | 75 | 161 | 7.0 | 14.0 | 0.00 | 0.00 | 0.00 | 93 | 1009.6 |
| 20260506061809 | 75 | 174 | 7.0 | 14.0 | 0.00 | 0.00 | 0.00 | 93 | 1009.5 |
| 20260506061308 | 75 | 176 | 7.0 | 14.0 | 0.00 | 0.00 | 0.00 | 93 | 1009.5 |
| 20260506061254 | 75 | 171 | 7.0 | 17.0 | 0.00 | 0.00 | 0.00 | 93 | 1009.5 |
| 20260506060528 | 75 | 137 | 7.0 | 17.0 | 0.00 | 0.00 | 0.00 | 93 | 1009.4 |
| 20260506051254 | 75 | 166 | 7.0 | 17.0 | 0.00 | 0.00 | 0.00 | 93 | 1009.6 |
| 20260506050755 | 76 | 165 | 6.0 | 17.0 | 0.00 | 0.00 | 0.00 | 93 | 1009.8 |
| 20260506050255 | 75 | 173 | 5.0 | 11.0 | 0.00 | 0.00 | 0.00 | 93 | 1009.9 |
| 20260506044752 | 75 | 201 | 5.0 | 12.0 | 0.00 | 0.00 | 0.00 | 92 | 1009.5 |
| 20260506044252 | 75 | 190 | 5.0 | 14.0 | 0.00 | 0.00 | 0.00 | 92 | 1009.5 |
| 20260506043752 | 76 | 184 | 5.0 | 14.0 | 0.00 | 0.00 | 0.00 | 92 | 1009.6 |
| 20260506043252 | 76 | 197 | 5.0 | 11.0 | 0.00 | 0.00 | 0.00 | 92 | 1009.5 |
| 20260506043017 | 76 | 167 | 6.0 | 12.0 | 0.00 | 0.00 | 0.00 | 92 | 1009.6 |
| 20260506042531 | 76 | 160 | 6.0 | 12.0 | 0.00 | 0.00 | 0.00 | 92 | 1009.8 |
| 20260506042029 | 76 | 131 | 6.0 | 11.0 | 0.00 | 0.00 | 0.00 | 91 | 1009.3 |
| 20260506042003 | 76 | 157 | 6.0 | 11.0 | 0.00 | 0.00 | 0.00 | 91 | 1009.5 |
| 20260506040745 | 76 | 138 | 5.0 | 11.0 | 0.00 | 0.00 | 0.00 | 91 | 1009.4 |
| 20260506040242 | 76 | 198 | 5.0 | 11.0 | 0.00 | 0.00 | 0.00 | 91 | 1009.3 |
| 20260506035739 | 76 | 194 | 5.0 | 11.0 | 0.00 | 0.00 | 0.00 | 91 | 1009.3 |
| 20260506035239 | 76 | 165 | 5.0 | 10.0 | 0.00 | 0.00 | 0.00 | 90 | 1009.1 |
| 20260506034740 | 76 | 167 | 3.0 | 7.0 | 0.00 | 0.00 | 0.00 | 90 | 1009.3 |
| 20260506034240 | 76 | 155 | 3.0 | 7.0 | 0.00 | 0.00 | 0.00 | 89 | 1009.3 |
| 20260506033739 | 76 | 150 | 3.0 | 7.0 | 0.00 | 0.00 | 0.00 | 89 | 1009.1 |
| 20260506033238 | 76 | 155 | 3.0 | 9.0 | 0.00 | 0.00 | 0.00 | 89 | 1009.1 |
| 20260506032737 | 76 | 184 | 3.0 | 9.0 | 0.00 | 0.00 | 0.00 | 89 | 1009.0 |
| 20260506032459 | 77 | 155 | 3.0 | 10.0 | 0.00 | 0.00 | 0.00 | 88 | 1009.1 |
| 20260506031735 | 77 | 169 | 3.0 | 10.0 | 0.00 | 0.00 | 0.00 | 88 | 1009.0 |
| 20260506031233 | 77 | 175 | 4.0 | 8.0 | 0.00 | 0.00 | 0.00 | 88 | 1009.0 |
| 20260506030734 | 77 | 165 | 4.0 | 8.0 | 0.00 | 0.00 | 0.00 | 88 | 1008.9 |
| 20260506030233 | 77 | 155 | 4.0 | 10.0 | 0.00 | 0.00 | 0.00 | 88 | 1008.8 |
| 20260506025734 | 77 | 169 | 4.0 | 10.0 | 0.00 | 0.00 | 0.00 | 88 | 1008.8 |
| 20260506025233 | 77 | 161 | 4.0 | 7.0 | 0.00 | 0.00 | 0.00 | 88 | 1008.7 |
| 20260506025000 | 77 | 186 | 4.0 | 7.0 | 0.00 | 0.00 | 0.00 | 87 | 1008.7 |
| 20260506024234 | 77 | 165 | 4.0 | 7.0 | 0.00 | 0.00 | 0.00 | 87 | 1008.7 |
| 20260506023736 | 77 | 147 | 4.0 | 8.0 | 0.00 | 0.00 | 0.00 | 87 | 1008.6 |
| 20260506023506 | 78 | 178 | 4.0 | 8.0 | 0.00 | 0.00 | 0.00 | 87 | 1008.4 |
| 20260506022734 | 78 | 150 | 4.0 | 8.0 | 0.00 | 0.00 | 0.00 | 87 | 1008.4 |
| 20260506022234 | 78 | 160 | 4.0 | 8.0 | 0.00 | 0.00 | 0.00 | 87 | 1008.4 |
| 20260506021733 | 78 | 156 | 4.0 | 8.0 | 0.00 | 0.00 | 0.00 | 86 | 1008.3 |
| 20260506021231 | 78 | 134 | 3.0 | 8.0 | 0.00 | 0.00 | 0.00 | 86 | 1008.1 |
| 20260506020729 | 78 | 176 | 3.0 | 7.0 | 0.00 | 0.00 | 0.00 | 86 | 1008.2 |
| 20260506020228 | 78 | 154 | 3.0 | 7.0 | 0.00 | 0.00 | 0.00 | 85 | 1008.1 |
| 20260506015726 | 78 | 153 | 3.0 | 6.0 | 0.00 | 0.00 | 0.00 | 85 | 1008.1 |
| 20260506015225 | 78 | 152 | 2.0 | 6.0 | 0.00 | 0.00 | 0.00 | 84 | 1008.0 |
| 20260506014723 | 78 | 155 | 2.0 | 6.0 | 0.00 | 0.00 | 0.00 | 84 | 1007.9 |
| 20260506014225 | 79 | 163 | 3.0 | 7.0 | 0.00 | 0.00 | 0.00 | 84 | 1008.0 |
| 20260506013723 | 79 | 165 | 4.0 | 8.0 | 0.00 | 0.00 | 0.00 | 83 | 1007.8 |
| 20260506013224 | 79 | 146 | 4.0 | 9.0 | 0.00 | 0.00 | 0.00 | 83 | 1007.7 |
| 20260506013215 | 79 | 164 | 4.0 | 9.0 | 0.00 | 0.00 | 0.00 | 83 | 1007.7 |
| 20260506012221 | 79 | 150 | 4.0 | 10.0 | 0.00 | 0.00 | 0.00 | 82 | 1007.6 |
| 20260506011721 | 80 | 168 | 4.0 | 10.0 | 0.00 | 0.00 | 0.00 | 82 | 1007.6 |
| 20260506011442 | 80 | 163 | 5.0 | 11.0 | 0.00 | 0.00 | 0.00 | 82 | 1007.5 |
| 20260506010947 | 80 | 158 | 5.0 | 11.0 | 0.00 | 0.00 | 0.00 | 81 | 1007.5 |
| 20260506010213 | 80 | 159 | 4.0 | 11.0 | 0.00 | 0.00 | 0.00 | 81 | 1007.4 |
| 20260506005713 | 80 | 168 | 4.0 | 11.0 | 0.00 | 0.00 | 0.00 | 80 | 1007.4 |
| 20260506005213 | 81 | 155 | 5.0 | 10.0 | 0.00 | 0.00 | 0.00 | 80 | 1007.4 |
| 20260506004713 | 81 | 211 | 5.0 | 12.0 | 0.00 | 0.00 | 0.00 | 80 | 1007.4 |
| 20260506004213 | 81 | 136 | 5.0 | 14.0 | 0.00 | 0.00 | 0.00 | 79 | 1007.5 |
| 20260506003713 | 81 | 163 | 5.0 | 14.0 | 0.00 | 0.00 | 0.00 | 79 | 1007.5 |
| 20260506003449 | 82 | 144 | 6.0 | 14.0 | 0.00 | 0.00 | 0.00 | 79 | 1007.6 |
| 20260506002937 | 82 | 163 | 7.0 | 14.0 | 0.00 | 0.00 | 0.00 | 78 | 1007.6 |
| 20260506002211 | 82 | 0 | 5.0 | 12.0 | 0.00 | 0.00 | 0.00 | 78 | 1007.5 |
| 20260506001942 | 82 | 158 | 4.0 | 10.0 | 0.00 | 0.00 | 0.00 | 79 | 1007.6 |
| 20260506001208 | 82 | 193 | 5.0 | 13.0 | 0.00 | 0.00 | 0.00 | 79 | 1007.6 |
| 20260506000706 | 82 | 140 | 5.0 | 13.0 | 0.00 | 0.00 | 0.00 | 78 | 1007.6 |
| 20260506000440 | 82 | 180 | 6.0 | 14.0 | 0.00 | 0.00 | 0.00 | 79 | 1007.6 |
| 20260505235707 | 82 | 160 | 6.0 | 14.0 | 0.00 | 0.00 | 0.00 | 78 | 1007.6 |
| 20260505235205 | 82 | 156 | 5.0 | 12.0 | 0.00 | 0.00 | 0.00 | 77 | 1007.7 |
| 20260505234706 | 83 | 157 | 4.0 | 11.0 | 0.00 | 0.00 | 0.00 | 77 | 1007.6 |
| 20260505234205 | 83 | 155 | 5.0 | 11.0 | 0.00 | 0.00 | 0.00 | 77 | 1007.5 |
| 20260505233703 | 83 | 175 | 5.0 | 12.0 | 0.00 | 0.00 | 0.00 | 77 | 1007.5 |
| 20260505233157 | 83 | 197 | 7.0 | 15.0 | 0.00 | 0.00 | 0.00 | 76 | 1007.4 |
| 20260505232926 | 83 | 155 | 6.0 | 15.0 | 0.00 | 0.00 | 0.00 | 76 | 1007.4 |
| 20260505232144 | 83 | 155 | 6.0 | 12.0 | 0.00 | 0.00 | 0.00 | 76 | 1007.4 |
| 20260505231639 | 83 | 159 | 6.0 | 12.0 | 0.00 | 0.00 | 0.00 | 76 | 1007.3 |
| 20260505231134 | 83 | 186 | 6.0 | 13.0 | 0.00 | 0.00 | 0.00 | 76 | 1007.2 |
| 20260505230902 | 83 | 211 | 5.0 | 13.0 | 0.00 | 0.00 | 0.00 | 76 | 1007.3 |
| 20260505230402 | 83 | 160 | 6.0 | 12.0 | 0.00 | 0.00 | 0.00 | 76 | 1007.2 |
| 20260505225635 | 84 | 206 | 7.0 | 12.0 | 0.00 | 0.00 | 0.00 | 75 | 1007.2 |
| 20260505225135 | 84 | 176 | 6.0 | 12.0 | 0.00 | 0.00 | 0.00 | 75 | 1007.1 |
| 20260505224634 | 84 | 151 | 6.0 | 12.0 | 0.00 | 0.00 | 0.00 | 75 | 1007.1 |
| 20260505224135 | 84 | 170 | 6.0 | 12.0 | 0.00 | 0.00 | 0.00 | 75 | 1007.1 |
| 20260505223900 | 85 | 120 | 6.0 | 12.0 | 0.00 | 0.00 | 0.00 | 74 | 1007.1 |
| 20260505223136 | 85 | 201 | 6.0 | 12.0 | 0.00 | 0.00 | 0.00 | 74 | 1007.2 |
| 20260505222634 | 85 | 164 | 6.0 | 13.0 | 0.00 | 0.00 | 0.00 | 74 | 1007.1 |
| 20260505222135 | 85 | 157 | 8.0 | 14.0 | 0.00 | 0.00 | 0.00 | 74 | 1007.1 |
| 20260505221635 | 85 | 154 | 8.0 | 14.0 | 0.00 | 0.00 | 0.00 | 74 | 1007.0 |
| 20260505221134 | 85 | 173 | 7.0 | 14.0 | 0.00 | 0.00 | 0.00 | 74 | 1006.9 |
| 20260505220634 | 85 | 177 | 7.0 | 16.0 | 0.00 | 0.00 | 0.00 | 73 | 1006.9 |
| 20260505220135 | 85 | 121 | 8.0 | 16.0 | 0.00 | 0.00 | 0.00 | 74 | 1007.0 |
| 20260505215635 | 85 | 178 | 8.0 | 14.0 | 0.00 | 0.00 | 0.00 | 73 | 1007.0 |
| 20260505215133 | 86 | 146 | 7.0 | 14.0 | 0.00 | 0.00 | 0.00 | 72 | 1007.3 |
| 20260505214634 | 86 | 126 | 7.0 | 16.0 | 0.00 | 0.00 | 0.00 | 72 | 1007.2 |
| 20260505214625 | 86 | 181 | 7.0 | 16.0 | 0.00 | 0.00 | 0.00 | 72 | 1007.3 |
| 20260505213621 | 86 | 184 | 6.0 | 15.0 | 0.00 | 0.00 | 0.00 | 72 | 1007.2 |
| 20260505213117 | 87 | 197 | 7.0 | 15.0 | 0.00 | 0.00 | 0.00 | 71 | 1007.2 |
| 20260505212617 | 87 | 151 | 7.0 | 13.0 | 0.00 | 0.00 | 0.00 | 71 | 1007.1 |
| 20260505212351 | 87 | 180 | 7.0 | 15.0 | 0.00 | 0.00 | 0.00 | 72 | 1007.4 |
| 20260505211617 | 87 | 179 | 8.0 | 15.0 | 0.00 | 0.00 | 0.00 | 71 | 1007.4 |
| 20260505211117 | 87 | 137 | 8.0 | 15.0 | 0.00 | 0.00 | 0.00 | 72 | 1007.4 |
| 20260505210617 | 87 | 174 | 8.0 | 15.0 | 0.00 | 0.00 | 0.00 | 71 | 1007.5 |
| 20260505210117 | 87 | 142 | 8.0 | 14.0 | 0.00 | 0.00 | 0.00 | 73 | 1007.8 |
| 20260505205617 | 86 | 157 | 8.0 | 17.0 | 0.00 | 0.00 | 0.00 | 73 | 1007.8 |
| 20260505205117 | 86 | 180 | 8.0 | 17.0 | 0.00 | 0.00 | 0.00 | 74 | 1007.8 |
| 20260505204617 | 86 | 176 | 7.0 | 13.0 | 0.00 | 0.00 | 0.00 | 72 | 1007.8 |
| 20260505204117 | 86 | 144 | 6.0 | 12.0 | 0.00 | 0.00 | 0.00 | 73 | 1008.0 |
| 20260505203617 | 86 | 194 | 6.0 | 16.0 | 0.00 | 0.00 | 0.00 | 73 | 1008.0 |
| 20260505203117 | 86 | 182 | 6.0 | 16.0 | 0.00 | 0.00 | 0.00 | 72 | 1007.9 |
| 20260505202617 | 85 | 226 | 6.0 | 16.0 | 0.00 | 0.00 | 0.00 | 72 | 1008.0 |
| 20260505202117 | 85 | 166 | 8.0 | 18.0 | 0.00 | 0.00 | 0.00 | 74 | 1008.0 |
| 20260505201624 | 85 | 182 | 7.0 | 18.0 | 0.00 | 0.00 | 0.00 | 72 | 1008.2 |
| 20260505201118 | 85 | 159 | 7.0 | 17.0 | 0.00 | 0.00 | 0.00 | 74 | 1008.3 |
| 20260505200620 | 85 | 151 | 8.0 | 17.0 | 0.00 | 0.00 | 0.00 | 74 | 1008.3 |
| 20260505200114 | 85 | 156 | 7.0 | 17.0 | 0.00 | 0.00 | 0.00 | 74 | 1008.4 |
| 20260505195614 | 85 | 244 | 8.0 | 17.0 | 0.00 | 0.00 | 0.00 | 73 | 1008.4 |
| 20260505195114 | 85 | 195 | 7.0 | 17.0 | 0.00 | 0.00 | 0.00 | 73 | 1008.4 |